Regional Weather Roundup
Issued by NWS

Home | Current Version | Previous Version | Graphics & Text | Print | Product List | Glossary On
Versions: 1 2 3 4 5 6 7 8 9 10 11 12 13 14 15 16 17 18 19 20 21 22 23 24 25 26 27 28 29 30 31 32 33 34 35 36 37 38 39 40 41 42 43 44 45 46 47 48 49 50
000
ASUS45 KPSR 271910
RWRAZ

ARIZONA REGIONAL HOURLY WEATHER ROUNDUP
NATIONAL WEATHER SERVICE PHOENIX AZ
1200 PM MST WED AUG 27 2014

NOTE: FAIR INDICATES FEW OR NO CLOUDS BELOW 12,000 FEET WITH NO
SIGNIFICANT WEATHER AND/OR OBSTRUCTIONS TO VISIBILITY.

AZZ001>003-036-272000-
NORTHWEST ARIZONA

CITY           SKY/WX    TMP DP  RH WIND       PRES   REMARKS
BULLHEAD CITY  SUNNY     93  57  29 W6        29.99F
KINGMAN        SUNNY     86  54  33 SW7       30.16F
$$

AZZ004>008-015-016-018-272000-
NORTH CENTRAL ARIZONA

CITY           SKY/WX    TMP DP  RH WIND       PRES   REMARKS
GRAND CANYON   PTSUNNY   68  50  52 W7G14     30.38S
WILLIAMS       MOSUNNY   70  50  49 SW6       30.44F
PRESCOTT       MOSUNNY   75  55  49 SE3       30.27F
FLAGSTAFF      CLOUDY    66  49  54 NW7       30.39F
PAYSON         SUNNY     79  54  41 SW8       30.30F
PAGE           SUNNY     72  51  47 N5        30.24F
$$

AZZ009>014-017-272000-
NORTHEAST ARIZONA

CITY           SKY/WX    TMP DP  RH WIND       PRES   REMARKS
WINSLOW        SUNNY     73  59  61 SE8G16    30.29F
SAINT JOHNS    PTSUNNY   70  55  59 N6        30.34F
SHOW LOW       SUNNY     66  48  52 CALM      30.40F
$$

AZZ023-272000-
GREATER PHOENIX AREA

CITY           SKY/WX    TMP DP  RH WIND       PRES   REMARKS
PHOENIX        MOSUNNY   97  62  31 VRB5      30.00F
BUCKEYE          N/A     93  63  36 SE12      30.01F
GLENDALE       MOSUNNY   93  63  36 SE3       30.02F
LUKE AFB       NOT AVBL
DEER VALLEY    SUNNY     93  60  33 VRB3      30.02F
SCOTTSDALE     SUNNY     93  62  35 CALM      30.04F
MESA-GATEWAY   PTSUNNY   93  61  33 VRB6      30.05F
CHANDLER       MOSUNNY   93  63  36 NE6       30.03F
$$

AZZ027-028-272000-
SOUTHWEST MARICOPA COUNTY AND PINAL COUNTY

CITY           SKY/WX    TMP DP  RH WIND       PRES   REMARKS
CASA GRANDE    SUNNY     93  63  36 CALM      30.04F
GILA BEND      PTCLDY    97  61  30 NE3       30.01F
$$

AZZ503-504-507>509-272000-
SOUTHEAST ARIZONA

CITY           SKY/WX    TMP DP  RH WIND       PRES   REMARKS
TUCSON         MOSUNNY   92  61  35 N3        30.12F
DAVIS-MONTHAN  SUNNY     87  61  41 VRB5      30.11F
NOGALES        MOSUNNY   82  63  52 W6        30.19F
SIERRA VISTA   PTSUNNY   81  59  47 NE7       30.25F
DOUGLAS        MOSUNNY   84  61  45 MISG      30.21F
SAFFORD        SUNNY     85  60  42 NW8       30.14F
$$

AZZ020-021-025-026-031-272000-
SOUTHWEST ARIZONA

CITY           SKY/WX    TMP DP  RH WIND       PRES   REMARKS
YUMA           MOSUNNY  101  45  15 NW9       29.95F
$$

CAZ031-033-041-043-047-048-061-272000-
SOUTHERN CALIFORNIA

CITY           SKY/WX    TMP DP  RH WIND       PRES   REMARKS
DOWNTOWN L.A.  SUNNY     90  51  26 VRB3      30.01F
L.A. AIRPORT   MOSUNNY   80  63  55 W10       30.04S
SAN DIEGO      SUNNY     83  61  47 NW9       30.03F
BURBANK        SUNNY     89  42  19 E5        30.03F
ONTARIO        MOSUNNY   90  42  18 W6        30.04F
RIVERSIDE      SUNNY     90  46  21 W6        30.04F
PALM SPRINGS   MOSUNNY  100  50  18 SE5       29.96F
EL CENTRO NAS  MOSUNNY  102  45  14 VRB7      29.92F
IMPERIAL       SUNNY    100  51  19 VRB5      29.92F
BLYTHE         SUNNY     98  46  17 SE3       29.95F
NEEDLES        SUNNY     98  56  24 N6        29.99F
$$

NVZ020-UTZ003-272000-
SOUTHERN NEVADA-UTAH

CITY           SKY/WX    TMP DP  RH WIND       PRES   REMARKS
LAS VEGAS      MOSUNNY   88  47  24 VRB5      30.06F
SALT LAKE CITY PTSUNNY   71  52  50 NW7       30.22F
$$

NMZ009-TXZ055-272000-
NEW MEXICO-WEST TEXAS

CITY           SKY/WX    TMP DP  RH WIND       PRES   REMARKS
ALBUQUERQUE    MOSUNNY   75  54  47 CALM      30.29F
EL PASO        MOSUNNY   83  61  47 CALM      30.18F
$$


........................KEY........................
SKY/WX - SKY CONDITION/WEATHER
TMP    - TEMPERATURE IN FAHRENHEIT
DP     - DEW POINT IN FAHRENHEIT
RH     - RELATIVE HUMIDITY IN PERCENT
WIND   - DIRECTION AND SPEED IN MILES PER HOUR (MPH)
VRB    - VARIABLE WIND DIRECTION
PRES   - MEAN SEA LEVEL PRESSURE IN INCHES OF MERCURY
         F - FALLING PRESSURE   R - RISING PRESSURE
         S - STEADY PRESSURE
VSB    - VISIBILITY IN MILES
HX     - HEAT INDEX IN FAHRENHEIT
WCI    - WIND CHILL INDEX IN FAHRENHEIT
TC     - TEMPERATURE IN CELSIUS WHICH IS ALSO KNOWN AS
         TEMPERATURE IN CENTIGRADE
AFB    - AIR FORCE BASE
         LUKE AFB IS LUKE AIR FORCE BASE
         DAVIS-MONTHAN IS DAVIS-MONTHAN AIR FORCE BASE
NAS    - NAVAL AIR STATION
         EL CENTRO NAS IS EL CENTRO NAVAL AIR STATION
N/A    - NOT AVAILABLE


USA.gov is the U.S. government's official web portal to all federal, state and local government web resources and services.